Flag for U.S.A. Weather past 2 weeks in Appleton, Wisconsin, U.S.A.

37 °F


Feels Like: 31 °F
Forecast: 26 / 39 °F
Wind: 9 mph from Northeast

Location: Appleton / Outagamie

Current Time: Nov 30, 2015 at 3:12:34 PM

Latest Report: Nov 30, 2015 at 2:45 PM

Visibility: 10 mi

Pressure: 30.09 "Hg

Humidity: 75%

Dew point: 30 °F

Location of AppletonLocation

Historic Weather in Appleton — Graph


Appleton temperature yesterday

Maximum temperature yesterday: 36 °F (at 12:45 PM)
Minimum temperature yesterday: 18 °F (at 5:45 AM)
Average temperature yesterday: 26 °F

Past Weeks' High & Low Weather Summary

High61 °F (Nov 15, 12:45 PM)100% (Nov 16, 11:45 AM)30.50 "Hg (Nov 16, 11:45 AM)
Low14 °F (Nov 22, 4:15 AM)36% (Nov 15, 12:45 PM)29.27 "Hg (Nov 18, 1:45 PM)
Average36 °F75%30.06 "Hg
* Reported Nov 15 12:45 PM — Nov 30 12:45 PM, Appleton, Weather by CustomWeather, © 2015

Note: Actual official high and low records may vary slightly from our data, if they occured in-between our weather recording intervals... More about our weather records


Appleton weather history for previous 24 hours

Time TempWeatherWind HumidityBarometerVisibility
12:45 PM
Mon, Nov 30
37 °FMore clouds than sun.13 mph75%30.13 "Hg10 mi
11:45 AM37 °FMostly cloudy.9 mph81%30.18 "Hg10 mi
10:45 AM36 °FDrizzle. Overcast.8 mph87%30.21 "Hg10 mi
9:45 AM36 °FOvercast.8 mph93%30.21 "Hg10 mi
8:45 AM34 °FOvercast.5 mph93%30.22 "Hg10 mi
7:45 AM32 °FOvercast.6 mph100%30.23 "Hg10 mi
6:45 AM30 °FPassing clouds.5 mph100%30.25 "Hg10 mi
5:45 AM30 °FPassing clouds.5 mph100%30.24 "Hg10 mi
4:15 AM30 °FPartly cloudy.3 mph100%30.24 "Hg10 mi
3:55 AM30 °FClear.No wind100%30.24 "Hg10 mi
3:35 AM32 °FPassing clouds.6 mph93%30.23 "Hg10 mi
3:15 AM32 °FPassing clouds.6 mph93%30.24 "Hg10 mi
2:55 AM32 °FPassing clouds.6 mph93%30.25 "Hg10 mi
2:35 AM32 °FPassing clouds.7 mph93%30.25 "Hg10 mi
2:15 AM32 °FMostly cloudy.3 mph93%30.27 "Hg10 mi
12:55 AM32 °FMostly cloudy.3 mph93%30.29 "Hg10 mi
11:55 PM
Sun, Nov 29
32 °FOvercast.5 mph93%30.30 "Hg10 mi
11:15 PM32 °FOvercast.6 mph93%30.30 "Hg10 mi
10:55 PM32 °FOvercast.3 mph93%30.31 "Hg10 mi
10:15 PM32 °FOvercast.5 mph93%30.31 "Hg10 mi
9:45 PM30 °FPassing clouds.No wind93%30.32 "Hg10 mi
8:45 PM30 °FPassing clouds.No wind93%30.32 "Hg10 mi
7:45 PM30 °FPassing clouds.No wind86%30.31 "Hg10 mi
6:45 PM28 °FPassing clouds.6 mph86%30.32 "Hg10 mi
5:45 PM32 °FPassing clouds.6 mph75%30.32 "Hg10 mi
4:45 PM32 °FPassing clouds.5 mph75%30.33 "Hg10 mi
3:45 PM36 °FScattered clouds.5 mph65%30.33 "Hg10 mi
Weather by CustomWeather, © 2015

See weather overviewHow to use our weather pages